STARLINK-1799, 46699

Orbit data source: Space-Track

STARLINK-1799, 46699 is a payload satellite owned by SpaceX/Seattle (US) in LEO that was launched on Sun, 18 Oct 2020 UTC via an FALCON 9 launch vehicle from the Air Force Eastern Test Range (AFETR). Payload-class satellites include a variety of spacecraft equipped with specific instruments for various scientific and technological missions. These include communications satellites like Starlink; space stations such as the ISS; scientific satellites like the Hubble; Earth observation satellites from companies like Planet Labs, Umbra, and HawkEye 360; GPS; miniature CubeSats for education and research; and military/defense satellites.

Loading next visibility...
Identifier
46699, 2020-073AF
Orbit
LEO
Country
Flag of USUS
Related business
Manufacturer
SpaceX/Seattle
Mission
Operational Commercial Communications
Bus & Motor
STARLINK, Unknown motor
Mass
260 kg wet, ~248 kg dry
Launch date (UTC)
2020-10-18 (5 years ago)
Launch vehicle
FALCON 9
Launch site
Air Force Eastern Test Range (AFETR)
Object type
Payload
Rocket body
Debris
Shape & HBR
Box + 1 Pan, 10.1 m
Radar Cross Section
13.562 m², Large (>1 m²)

Expand to show TLE details & history
Last TLE update: 5 hours ago

TLE from 5 hours ago
0 STARLINK-1799
1 46699U 20073AF  25304.00002315  .01138794  00000-0  33915-1 0  9996
2 46699  53.0586 102.7332 0001051  69.8190  44.8575 15.31666688  5807
Epoch: 2025-10-31T00:00Z
TLE epoch observation values (Epoch: 2025-10-31T00:00:02.000Z)
Latitude
46.71453°
Longitude
-169.38129°
Altitude
475.389 km
Speed
7.634 km/s
True Right ascension
15h 20m 42s
True Declination
46° 32' 09"
Sunlit
Object was in daylight at epoch
Visualization orbit readout
Latitude
Unknown
Longitude
Unknown
Altitude
Unknown
Speed
Unknown
Apparent Right ascension
Unknown
Apparent Declination
Unknown
Sunlit
N/A
Visualization observer readout
Local Sidereal Time
00:20:15
Azimuth
Unknown
Elevation
Unknown
Doppler factor
Unknown
Orbital elements
Apogee altitude
471.832 km
Perigee altitude
470.392 km
Semi-major axis
6,849.249 km
Eccentricity
0.00011
Inclination
53.0586°
RAAN
102.7332°
Arg. of periapsis
69.819°
True anomaly
44.866°
Mean anomaly
44.8575°
Eccentric anomaly
44.86175°
Mean motion
3.82894 °/min
Orbital period
94.02 mins
BSTAR
0.033915
Loading maneuver chart data...
Computing Atmospheric mass density...

Documentation

Showing up to 5 results
|